contact:dominique.lefevre@mio.osupytheas.fr, maurice.libes@osupytheas.fr, didier.mallarino@osupytheas.fr
Project:EMSO http://www.emso-fr.org/EMSO-France
Depth: 2436.0 m
Title:EMSO Ligure Ouest : Data MII capteur CSTAR
DateTime,Latitude,Longitude,Instrument_Serial,Reference_Counts,Signal_Counts,Corrected_Signal_raw_counts,Calculated_Beam_c_inverse_meters,Internal_thermistor_counts
DateTime,Latitude,Longitude,Instrument_Serial,Reference_Counts,Signal_Counts,Corrected_Signal_raw_counts,Calculated_Beam_c_inverse_meters,Internal_thermistor_counts
2022-03-17T00:01:57,42.805,6.029,CST-1368DR,4844,5701,12561,0.871,551
2022-03-17T00:04:59,42.805,6.029,CST-1368DR,4844,5699,12556,0.872,551
2022-03-17T00:08:00,42.805,6.029,CST-1368DR,4844,5704,12567,0.869,551
2022-03-17T00:11:02,42.805,6.029,CST-1368DR,4844,5703,12565,0.870,551
2022-03-17T00:14:04,42.805,6.029,CST-1368DR,4844,5702,12563,0.870,551
2022-03-17T00:17:05,42.805,6.029,CST-1368DR,4844,5709,12577,0.866,551
2022-03-17T00:20:07,42.805,6.029,CST-1368DR,4844,5704,12566,0.869,551
2022-03-17T00:23:08,42.805,6.029,CST-1368DR,4844,5705,12569,0.868,551
2022-03-17T00:26:10,42.805,6.029,CST-1368DR,4844,5705,12568,0.869,551
2022-03-17T00:29:12,42.805,6.029,CST-1368DR,4844,5707,12574,0.867,551
2022-03-17T00:32:13,42.805,6.029,CST-1368DR,4844,5706,12570,0.868,551
2022-03-17T00:35:15,42.805,6.029,CST-1368DR,4844,5706,12572,0.867,551
2022-03-17T00:38:16,42.805,6.029,CST-1368DR,4844,5698,12552,0.874,551
2022-03-17T00:41:18,42.805,6.029,CST-1368DR,4844,5700,12558,0.872,551
2022-03-17T00:44:19,42.805,6.029,CST-1368DR,4844,5704,12567,0.869,551
2022-03-17T00:47:21,42.805,6.029,CST-1368DR,4844,5701,12561,0.871,551
2022-03-17T00:50:23,42.805,6.029,CST-1368DR,4844,5702,12562,0.870,551
2022-03-17T00:53:24,42.805,6.029,CST-1368DR,4844,5703,12563,0.870,551
2022-03-17T00:56:26,42.805,6.029,CST-1368DR,4844,5705,12568,0.869,551
2022-03-17T00:59:27,42.805,6.029,CST-1368DR,4844,5702,12562,0.870,551
2022-03-17T01:02:29,42.805,6.029,CST-1368DR,4844,5703,12565,0.870,551
2022-03-17T01:05:30,42.805,6.029,CST-1368DR,4844,5704,12566,0.869,551
2022-03-17T01:08:32,42.805,6.029,CST-1368DR,4844,5704,12567,0.869,551
2022-03-17T01:11:34,42.805,6.029,CST-1368DR,4844,5702,12561,0.871,551
2022-03-17T01:14:35,42.805,6.029,CST-1368DR,4844,5704,12567,0.869,551
2022-03-17T01:17:37,42.805,6.029,CST-1368DR,4844,5701,12559,0.871,551
2022-03-17T01:20:38,42.805,6.029,CST-1368DR,4844,5706,12570,0.868,551
2022-03-17T01:23:40,42.805,6.029,CST-1368DR,4844,5714,12588,0.862,551
2022-03-17T01:26:42,42.805,6.029,CST-1368DR,4844,5711,12581,0.864,551
2022-03-17T01:29:43,42.805,6.029,CST-1368DR,4844,5706,12571,0.868,551
2022-03-17T01:32:45,42.805,6.029,CST-1368DR,4844,5702,12562,0.870,551
2022-03-17T01:35:46,42.805,6.029,CST-1368DR,4844,5702,12562,0.870,551
2022-03-17T01:38:48,42.805,6.029,CST-1368DR,4844,5726,12616,0.853,551
2022-03-17T01:41:49,42.805,6.029,CST-1368DR,4844,5711,12581,0.864,551
2022-03-17T01:44:51,42.805,6.029,CST-1368DR,4844,5712,12585,0.863,551
2022-03-17T01:47:53,42.805,6.029,CST-1368DR,4844,5705,12568,0.869,551
2022-03-17T01:50:54,42.805,6.029,CST-1368DR,4844,5708,12574,0.867,551
2022-03-17T01:53:56,42.805,6.029,CST-1368DR,4844,5708,12574,0.867,551
2022-03-17T01:56:57,42.805,6.029,CST-1368DR,4844,5706,12571,0.868,551
2022-03-17T01:59:59,42.805,6.029,CST-1368DR,4844,5710,12580,0.865,551
2022-03-17T02:03:01,42.805,6.029,CST-1368DR,4844,5703,12563,0.870,551
2022-03-17T02:06:02,42.805,6.029,CST-1368DR,4844,5702,12562,0.870,551
2022-03-17T02:09:04,42.805,6.029,CST-1368DR,4844,5705,12568,0.869,551
2022-03-17T02:12:05,42.805,6.029,CST-1368DR,4844,5702,12562,0.870,551
2022-03-17T02:15:07,42.805,6.029,CST-1368DR,4844,5701,12561,0.871,551
2022-03-17T02:18:08,42.805,6.029,CST-1368DR,4844,5708,12575,0.866,551
2022-03-17T02:21:10,42.805,6.029,CST-1368DR,4844,5702,12562,0.870,551
2022-03-17T02:24:12,42.805,6.029,CST-1368DR,4844,5708,12575,0.866,551
2022-03-17T02:27:13,42.805,6.029,CST-1368DR,4844,5701,12559,0.871,551
2022-03-17T02:30:15,42.805,6.029,CST-1368DR,4844,5704,12567,0.869,551
2022-03-17T02:33:16,42.805,6.029,CST-1368DR,4844,5702,12562,0.870,551
2022-03-17T02:36:18,42.805,6.029,CST-1368DR,4844,5705,12568,0.869,551
2022-03-17T02:39:19,42.805,6.029,CST-1368DR,4844,5706,12571,0.868,551
2022-03-17T02:42:21,42.805,6.029,CST-1368DR,4844,5706,12570,0.868,551
2022-03-17T02:45:23,42.805,6.029,CST-1368DR,4844,5708,12575,0.866,551
2022-03-17T02:48:24,42.805,6.029,CST-1368DR,4844,5706,12571,0.868,551
2022-03-17T02:51:26,42.805,6.029,CST-1368DR,4844,5710,12580,0.865,551
2022-03-17T02:54:27,42.805,6.029,CST-1368DR,4844,5713,12585,0.863,551
2022-03-17T02:57:29,42.805,6.029,CST-1368DR,4844,5708,12576,0.866,551
2022-03-17T03:00:31,42.805,6.029,CST-1368DR,4843,5684,12524,0.883,551
2022-03-17T03:03:32,42.805,6.029,CST-1368DR,4843,5682,12520,0.884,551
2022-03-17T03:06:34,42.805,6.029,CST-1368DR,4843,5684,12525,0.882,551
2022-03-17T03:09:35,42.805,6.029,CST-1368DR,4844,5731,12626,0.850,551
2022-03-17T03:12:37,42.805,6.029,CST-1368DR,4844,5715,12591,0.861,551
2022-03-17T03:15:38,42.805,6.029,CST-1368DR,4844,5726,12616,0.853,551
2022-03-17T03:18:40,42.805,6.029,CST-1368DR,4844,5726,12615,0.854,551
2022-03-17T03:21:42,42.805,6.029,CST-1368DR,4844,5719,12600,0.858,550
2022-03-17T03:24:43,42.805,6.029,CST-1368DR,4844,5723,12608,0.856,551
2022-03-17T03:27:45,42.805,6.029,CST-1368DR,4843,5710,12582,0.864,551
2022-03-17T03:30:46,42.805,6.029,CST-1368DR,4844,5746,12660,0.839,551
2022-03-17T03:33:48,42.805,6.029,CST-1368DR,4844,5745,12656,0.841,551
2022-03-17T03:36:49,42.805,6.029,CST-1368DR,4844,5757,12682,0.832,551
2022-03-17T03:39:51,42.805,6.029,CST-1368DR,4844,5750,12667,0.837,551
2022-03-17T03:42:53,42.805,6.029,CST-1368DR,4844,5753,12675,0.835,551
2022-03-17T03:45:54,42.805,6.029,CST-1368DR,4844,5755,12680,0.833,551
2022-03-17T03:48:56,42.805,6.029,CST-1368DR,4844,5752,12671,0.836,551
2022-03-17T03:51:57,42.805,6.029,CST-1368DR,4844,5750,12667,0.837,551
2022-03-17T03:54:59,42.805,6.029,CST-1368DR,4844,5748,12664,0.838,551
2022-03-17T03:58:01,42.805,6.029,CST-1368DR,4844,5752,12671,0.836,551
2022-03-17T04:01:02,42.805,6.029,CST-1368DR,4844,5749,12665,0.838,551
2022-03-17T04:04:04,42.805,6.029,CST-1368DR,4844,5770,12713,0.823,551
2022-03-17T04:07:05,42.805,6.029,CST-1368DR,4844,5770,12713,0.823,551
2022-03-17T04:10:07,42.805,6.029,CST-1368DR,4844,5748,12662,0.839,551
2022-03-17T04:13:08,42.805,6.029,CST-1368DR,4844,5763,12697,0.828,551
2022-03-17T04:16:10,42.805,6.029,CST-1368DR,4844,5754,12677,0.834,551
2022-03-17T04:19:12,42.805,6.029,CST-1368DR,4844,5757,12682,0.832,551
2022-03-17T04:22:13,42.805,6.029,CST-1368DR,4844,5757,12683,0.832,551
2022-03-17T04:25:15,42.805,6.029,CST-1368DR,4844,5765,12700,0.827,551
2022-03-17T04:28:16,42.805,6.029,CST-1368DR,4844,5759,12688,0.831,551
2022-03-17T04:31:18,42.805,6.029,CST-1368DR,4844,5769,12709,0.824,551
2022-03-17T04:34:19,42.805,6.029,CST-1368DR,4844,5763,12697,0.828,551
2022-03-17T04:37:21,42.805,6.029,CST-1368DR,4844,5751,12671,0.836,551
2022-03-17T04:40:23,42.805,6.029,CST-1368DR,4844,5763,12697,0.828,551
2022-03-17T04:43:24,42.805,6.029,CST-1368DR,4844,5754,12677,0.834,551
2022-03-17T04:46:26,42.805,6.029,CST-1368DR,4844,5760,12689,0.830,551
2022-03-17T04:49:27,42.805,6.029,CST-1368DR,4844,5751,12670,0.836,551
2022-03-17T04:52:29,42.805,6.029,CST-1368DR,4844,5748,12662,0.839,551
2022-03-17T04:55:31,42.805,6.029,CST-1368DR,4844,5755,12678,0.834,551
2022-03-17T04:58:32,42.805,6.029,CST-1368DR,4844,5761,12692,0.829,551
2022-03-17T05:01:34,42.805,6.029,CST-1368DR,4844,5762,12694,0.829,551
2022-03-17T05:04:35,42.805,6.029,CST-1368DR,4844,5766,12702,0.826,551
2022-03-17T05:07:37,42.805,6.029,CST-1368DR,4844,5749,12665,0.838,551
2022-03-17T05:10:38,42.805,6.029,CST-1368DR,4844,5769,12710,0.824,551
2022-03-17T05:13:40,42.805,6.029,CST-1368DR,4844,5769,12709,0.824,551
2022-03-17T05:16:42,42.805,6.029,CST-1368DR,4844,5750,12667,0.837,551
2022-03-17T05:19:43,42.805,6.029,CST-1368DR,4844,5762,12694,0.829,551
2022-03-17T05:22:45,42.805,6.029,CST-1368DR,4844,5762,12694,0.829,551
2022-03-17T05:25:46,42.805,6.029,CST-1368DR,4844,5758,12684,0.832,551
2022-03-17T05:28:48,42.805,6.029,CST-1368DR,4844,5758,12686,0.831,551
2022-03-17T05:31:50,42.805,6.029,CST-1368DR,4844,5758,12686,0.831,551
2022-03-17T05:34:51,42.805,6.029,CST-1368DR,4844,5770,12713,0.823,551
2022-03-17T05:37:53,42.805,6.029,CST-1368DR,4844,5768,12708,0.824,551
2022-03-17T05:40:54,42.805,6.029,CST-1368DR,4844,5767,12705,0.825,551
2022-03-17T05:43:56,42.805,6.029,CST-1368DR,4844,5760,12689,0.830,551
2022-03-17T05:46:57,42.805,6.029,CST-1368DR,4844,5760,12691,0.830,551
2022-03-17T05:49:59,42.805,6.029,CST-1368DR,4844,5772,12717,0.821,551
2022-03-17T05:53:01,42.805,6.029,CST-1368DR,4844,5765,12700,0.827,551
2022-03-17T05:56:02,42.805,6.029,CST-1368DR,4844,5763,12696,0.828,551
2022-03-17T05:59:04,42.805,6.029,CST-1368DR,4844,5772,12717,0.821,551
2022-03-17T06:02:05,42.805,6.029,CST-1368DR,4844,5771,12714,0.822,551
2022-03-17T06:05:07,42.805,6.029,CST-1368DR,4844,5777,12727,0.818,551
2022-03-17T06:08:08,42.805,6.029,CST-1368DR,4844,5772,12716,0.822,551
2022-03-17T06:11:10,42.805,6.029,CST-1368DR,4844,5762,12695,0.828,551
2022-03-17T06:14:12,42.805,6.029,CST-1368DR,4844,5766,12703,0.826,551
2022-03-17T06:17:13,42.805,6.029,CST-1368DR,4844,5766,12702,0.826,551
2022-03-17T06:20:15,42.805,6.029,CST-1368DR,4844,5771,12715,0.822,551
2022-03-17T06:23:16,42.805,6.029,CST-1368DR,4844,5755,12680,0.833,551
2022-03-17T06:26:18,42.805,6.029,CST-1368DR,4844,5771,12714,0.822,551
2022-03-17T06:29:20,42.805,6.029,CST-1368DR,4844,5768,12707,0.825,551
2022-03-17T06:32:21,42.805,6.029,CST-1368DR,4844,5762,12694,0.829,551
2022-03-17T06:35:23,42.805,6.029,CST-1368DR,4844,5760,12691,0.830,551
2022-03-17T06:38:24,42.805,6.029,CST-1368DR,4844,5766,12703,0.826,551
2022-03-17T06:41:26,42.805,6.029,CST-1368DR,4844,5765,12700,0.827,551
2022-03-17T06:44:27,42.805,6.029,CST-1368DR,4844,5768,12708,0.824,551
2022-03-17T06:47:29,42.805,6.029,CST-1368DR,4844,5766,12702,0.826,550
2022-03-17T06:50:31,42.805,6.029,CST-1368DR,4844,5763,12697,0.828,551
2022-03-17T06:53:32,42.805,6.029,CST-1368DR,4844,5771,12714,0.822,551
2022-03-17T06:56:34,42.805,6.029,CST-1368DR,4844,5768,12708,0.824,551
2022-03-17T06:59:35,42.805,6.029,CST-1368DR,4844,5760,12689,0.830,551
2022-03-17T07:02:37,42.805,6.029,CST-1368DR,4844,5755,12678,0.834,551
2022-03-17T07:05:38,42.805,6.029,CST-1368DR,4844,5766,12702,0.826,551
2022-03-17T07:08:40,42.805,6.029,CST-1368DR,4844,5771,12714,0.822,550
2022-03-17T07:11:42,42.805,6.029,CST-1368DR,4844,5768,12707,0.825,551
2022-03-17T07:14:43,42.805,6.029,CST-1368DR,4844,5769,12710,0.824,551
2022-03-17T07:17:45,42.805,6.029,CST-1368DR,4844,5758,12686,0.831,551
2022-03-17T07:20:46,42.805,6.029,CST-1368DR,4844,5770,12711,0.823,551
2022-03-17T07:23:48,42.805,6.029,CST-1368DR,4844,5769,12710,0.824,551
2022-03-17T07:26:50,42.805,6.029,CST-1368DR,4844,5770,12713,0.823,551
2022-03-17T07:29:51,42.805,6.029,CST-1368DR,4844,5763,12697,0.828,551
2022-03-17T07:32:53,42.805,6.029,CST-1368DR,4844,5768,12708,0.824,551
2022-03-17T07:35:54,42.805,6.029,CST-1368DR,4844,5762,12694,0.829,551
2022-03-17T07:38:56,42.805,6.029,CST-1368DR,4844,5762,12694,0.829,551
2022-03-17T07:41:57,42.805,6.029,CST-1368DR,4844,5773,12718,0.821,551
2022-03-17T07:44:59,42.805,6.029,CST-1368DR,4844,5780,12733,0.816,551
2022-03-17T07:48:01,42.805,6.029,CST-1368DR,4844,5774,12720,0.820,551
2022-03-17T07:51:02,42.805,6.029,CST-1368DR,4844,5771,12714,0.822,551
2022-03-17T07:54:04,42.805,6.029,CST-1368DR,4844,5762,12695,0.828,551
2022-03-17T07:57:05,42.805,6.029,CST-1368DR,4844,5773,12718,0.821,550
2022-03-17T08:00:07,42.805,6.029,CST-1368DR,4844,5765,12700,0.827,551
2022-03-17T08:03:08,42.805,6.029,CST-1368DR,4844,5764,12698,0.827,551
2022-03-17T08:06:10,42.805,6.029,CST-1368DR,4844,5769,12710,0.824,551
2022-03-17T08:09:12,42.805,6.029,CST-1368DR,4844,5758,12686,0.831,551
2022-03-17T08:12:13,42.805,6.029,CST-1368DR,4844,5760,12689,0.830,551
2022-03-17T08:15:15,42.805,6.029,CST-1368DR,4844,5754,12676,0.834,550
2022-03-17T08:18:16,42.805,6.029,CST-1368DR,4844,5761,12692,0.829,551
2022-03-17T08:21:18,42.805,6.029,CST-1368DR,4844,5754,12677,0.834,551
2022-03-17T08:24:20,42.805,6.029,CST-1368DR,4844,5773,12719,0.821,551
2022-03-17T08:27:21,42.805,6.029,CST-1368DR,4844,5757,12684,0.832,551
2022-03-17T08:30:23,42.805,6.029,CST-1368DR,4844,5755,12680,0.833,551
2022-03-17T08:33:24,42.805,6.029,CST-1368DR,4844,5769,12709,0.824,550
2022-03-17T08:36:26,42.805,6.029,CST-1368DR,4844,5769,12710,0.824,551
2022-03-17T08:39:27,42.805,6.029,CST-1368DR,4844,5769,12710,0.824,551
2022-03-17T08:42:29,42.805,6.029,CST-1368DR,4844,5765,12700,0.827,551
2022-03-17T08:45:31,42.805,6.029,CST-1368DR,4844,5767,12705,0.825,551
2022-03-17T08:48:32,42.805,6.029,CST-1368DR,4844,5767,12705,0.825,551
2022-03-17T08:51:34,42.805,6.029,CST-1368DR,4844,5769,12709,0.824,551
2022-03-17T08:54:35,42.805,6.029,CST-1368DR,4843,5768,12709,0.824,551
2022-03-17T08:57:37,42.805,6.029,CST-1368DR,4844,5776,12725,0.819,551
2022-03-17T09:00:39,42.805,6.029,CST-1368DR,4843,5755,12681,0.833,551
2022-03-17T09:03:40,42.805,6.029,CST-1368DR,4843,5756,12683,0.832,551
2022-03-17T09:06:42,42.805,6.029,CST-1368DR,4844,5762,12694,0.829,551
2022-03-17T09:09:43,42.805,6.029,CST-1368DR,4844,5769,12710,0.824,551
2022-03-17T09:12:45,42.805,6.029,CST-1368DR,4844,5776,12725,0.819,551
2022-03-17T09:15:46,42.805,6.029,CST-1368DR,4844,5771,12714,0.822,551
2022-03-17T09:18:48,42.805,6.029,CST-1368DR,4843,5763,12698,0.827,551
2022-03-17T09:21:50,42.805,6.029,CST-1368DR,4844,5770,12711,0.823,551
2022-03-17T09:24:51,42.805,6.029,CST-1368DR,4844,5763,12697,0.828,551
2022-03-17T09:27:53,42.805,6.029,CST-1368DR,4844,5762,12695,0.828,551
2022-03-17T09:30:54,42.805,6.029,CST-1368DR,4844,5769,12710,0.824,551
2022-03-17T09:33:56,42.805,6.029,CST-1368DR,4844,5773,12719,0.821,551
2022-03-17T09:36:57,42.805,6.029,CST-1368DR,4844,5772,12715,0.822,551
2022-03-17T09:39:59,42.805,6.029,CST-1368DR,4843,5765,12702,0.826,551
2022-03-17T09:43:01,42.805,6.029,CST-1368DR,4844,5769,12710,0.824,551
2022-03-17T09:46:02,42.805,6.029,CST-1368DR,4844,5777,12726,0.819,551
2022-03-17T09:49:04,42.805,6.029,CST-1368DR,4844,5772,12717,0.821,551
2022-03-17T09:52:05,42.805,6.029,CST-1368DR,4844,5768,12708,0.824,551
2022-03-17T09:55:07,42.805,6.029,CST-1368DR,4844,5765,12702,0.826,551
2022-03-17T09:58:09,42.805,6.029,CST-1368DR,4844,5767,12705,0.825,551
2022-03-17T10:01:10,42.805,6.029,CST-1368DR,4844,5773,12718,0.821,551
2022-03-17T10:04:12,42.805,6.029,CST-1368DR,4844,5770,12712,0.823,551
2022-03-17T10:07:13,42.805,6.029,CST-1368DR,4844,5760,12691,0.830,551
2022-03-17T10:10:15,42.805,6.029,CST-1368DR,4844,5767,12705,0.825,551
2022-03-17T10:13:16,42.805,6.029,CST-1368DR,4844,5771,12714,0.822,551
2022-03-17T10:16:18,42.805,6.029,CST-1368DR,4844,5770,12711,0.823,551
2022-03-17T10:19:20,42.805,6.029,CST-1368DR,4843,5765,12704,0.826,551
2022-03-17T10:22:21,42.805,6.029,CST-1368DR,4844,5766,12704,0.826,551
2022-03-17T10:25:23,42.805,6.029,CST-1368DR,4843,5776,12728,0.818,551
2022-03-17T10:28:24,42.805,6.029,CST-1368DR,4843,5768,12711,0.823,550
2022-03-17T10:31:26,42.805,6.029,CST-1368DR,4844,5775,12724,0.819,551
2022-03-17T10:34:27,42.805,6.029,CST-1368DR,4843,5760,12693,0.829,551
2022-03-17T10:37:29,42.805,6.029,CST-1368DR,4844,5774,12721,0.820,551
2022-03-17T10:40:31,42.805,6.029,CST-1368DR,4844,5773,12718,0.821,551
2022-03-17T10:43:32,42.805,6.029,CST-1368DR,4844,5774,12720,0.820,551
2022-03-17T10:46:34,42.805,6.029,CST-1368DR,4844,5773,12719,0.821,551
2022-03-17T10:49:35,42.805,6.029,CST-1368DR,4843,5769,12711,0.823,551
2022-03-17T10:52:37,42.805,6.029,CST-1368DR,4843,5769,12712,0.823,551
2022-03-17T10:55:39,42.805,6.029,CST-1368DR,4843,5770,12715,0.822,551
2022-03-17T10:58:40,42.805,6.029,CST-1368DR,4843,5762,12697,0.828,551
2022-03-17T11:01:42,42.805,6.029,CST-1368DR,4843,5765,12703,0.826,551
2022-03-17T11:04:43,42.805,6.029,CST-1368DR,4843,5758,12688,0.831,551
2022-03-17T11:07:45,42.805,6.029,CST-1368DR,4844,5772,12715,0.822,551
2022-03-17T11:10:46,42.805,6.029,CST-1368DR,4844,5768,12708,0.824,551
2022-03-17T11:13:48,42.805,6.029,CST-1368DR,4843,5769,12712,0.823,551
2022-03-17T11:16:50,42.805,6.029,CST-1368DR,4844,5770,12711,0.823,551
2022-03-17T11:19:51,42.805,6.029,CST-1368DR,4844,5768,12707,0.825,551
2022-03-17T11:22:53,42.805,6.029,CST-1368DR,4844,5768,12708,0.824,551
2022-03-17T11:25:54,42.805,6.029,CST-1368DR,4844,5769,12710,0.824,551
2022-03-17T11:28:56,42.805,6.029,CST-1368DR,4843,5767,12707,0.825,551
2022-03-17T11:31:57,42.805,6.029,CST-1368DR,4843,5772,12719,0.821,551
2022-03-17T11:34:59,42.805,6.029,CST-1368DR,4843,5771,12717,0.821,551
2022-03-17T11:38:01,42.805,6.029,CST-1368DR,4843,5769,12712,0.823,551
2022-03-17T11:41:02,42.805,6.029,CST-1368DR,4843,5766,12705,0.825,551
2022-03-17T11:44:04,42.805,6.029,CST-1368DR,4843,5773,12722,0.820,551
2022-03-17T11:47:05,42.805,6.029,CST-1368DR,4843,5765,12703,0.826,551
2022-03-17T11:50:07,42.805,6.029,CST-1368DR,4843,5763,12699,0.827,551
2022-03-17T11:53:09,42.805,6.029,CST-1368DR,4843,5759,12691,0.830,551
2022-03-17T11:56:10,42.805,6.029,CST-1368DR,4843,5765,12704,0.826,551
2022-03-17T11:59:12,42.805,6.029,CST-1368DR,4843,5772,12718,0.821,551
2022-03-17T12:02:13,42.805,6.029,CST-1368DR,4843,5769,12712,0.823,551
2022-03-17T12:05:15,42.805,6.029,CST-1368DR,4843,5772,12719,0.821,551
2022-03-17T12:08:16,42.805,6.029,CST-1368DR,4843,5772,12719,0.821,551
2022-03-17T12:11:18,42.805,6.029,CST-1368DR,4843,5767,12707,0.825,551
2022-03-17T12:14:20,42.805,6.029,CST-1368DR,4843,5774,12722,0.820,551
2022-03-17T12:17:21,42.805,6.029,CST-1368DR,4843,5773,12721,0.820,551
2022-03-17T12:20:23,42.805,6.029,CST-1368DR,4843,5768,12710,0.824,551
2022-03-17T12:23:24,42.805,6.029,CST-1368DR,4843,5768,12710,0.824,551
2022-03-17T12:26:26,42.805,6.029,CST-1368DR,4843,5766,12706,0.825,551
2022-03-17T12:29:28,42.805,6.029,CST-1368DR,4843,5769,12711,0.823,551
2022-03-17T12:32:29,42.805,6.029,CST-1368DR,4843,5772,12719,0.821,551
2022-03-17T12:35:31,42.805,6.029,CST-1368DR,4843,5770,12715,0.822,551
2022-03-17T12:38:32,42.805,6.029,CST-1368DR,4843,5764,12700,0.827,551
2022-03-17T12:41:34,42.805,6.029,CST-1368DR,4843,5763,12699,0.827,551
2022-03-17T12:44:35,42.805,6.029,CST-1368DR,4843,5769,12712,0.823,551
2022-03-17T12:47:37,42.805,6.029,CST-1368DR,4843,5770,12715,0.822,551
2022-03-17T12:50:39,42.805,6.029,CST-1368DR,4843,5767,12707,0.825,551
2022-03-17T12:53:40,42.805,6.029,CST-1368DR,4843,5771,12716,0.822,551
2022-03-17T12:56:42,42.805,6.029,CST-1368DR,4843,5768,12711,0.823,551
2022-03-17T12:59:43,42.805,6.029,CST-1368DR,4843,5770,12714,0.822,551
2022-03-17T13:02:45,42.805,6.029,CST-1368DR,4843,5772,12719,0.821,551
2022-03-17T13:05:46,42.805,6.029,CST-1368DR,4843,5771,12717,0.821,551
2022-03-17T13:08:48,42.805,6.029,CST-1368DR,4843,5771,12716,0.822,551
2022-03-17T13:11:50,42.805,6.029,CST-1368DR,4843,5766,12706,0.825,551
2022-03-17T13:14:51,42.805,6.029,CST-1368DR,4843,5770,12715,0.822,551
2022-03-17T13:17:53,42.805,6.029,CST-1368DR,4843,5770,12713,0.823,551
2022-03-17T13:20:54,42.805,6.029,CST-1368DR,4843,5775,12725,0.819,551
2022-03-17T13:23:56,42.805,6.029,CST-1368DR,4843,5768,12710,0.824,551
2022-03-17T13:26:58,42.805,6.029,CST-1368DR,4843,5774,12723,0.820,551
2022-03-17T13:29:59,42.805,6.029,CST-1368DR,4843,5768,12710,0.824,551
2022-03-17T13:33:01,42.805,6.029,CST-1368DR,4843,5772,12719,0.821,551
2022-03-17T13:36:02,42.805,6.029,CST-1368DR,4843,5769,12713,0.823,551
2022-03-17T13:39:04,42.805,6.029,CST-1368DR,4843,5770,12715,0.822,551
2022-03-17T13:42:05,42.805,6.029,CST-1368DR,4843,5770,12714,0.822,551
2022-03-17T13:45:07,42.805,6.029,CST-1368DR,4843,5769,12713,0.823,551
2022-03-17T13:48:09,42.805,6.029,CST-1368DR,4843,5772,12718,0.821,551
2022-03-17T13:51:10,42.805,6.029,CST-1368DR,4843,5771,12717,0.821,551
2022-03-17T13:54:12,42.805,6.029,CST-1368DR,4843,5775,12724,0.819,551
2022-03-17T13:57:13,42.805,6.029,CST-1368DR,4843,5768,12711,0.823,551
2022-03-17T14:00:15,42.805,6.029,CST-1368DR,4843,5766,12705,0.825,551
2022-03-17T14:03:17,42.805,6.029,CST-1368DR,4843,5769,12712,0.823,551
2022-03-17T14:06:18,42.805,6.029,CST-1368DR,4843,5773,12721,0.820,551
2022-03-17T14:09:20,42.805,6.029,CST-1368DR,4843,5774,12722,0.820,551
2022-03-17T14:12:21,42.805,6.029,CST-1368DR,4843,5771,12717,0.821,551
2022-03-17T14:15:23,42.805,6.029,CST-1368DR,4843,5770,12715,0.822,551
2022-03-17T14:18:24,42.805,6.029,CST-1368DR,4843,5770,12715,0.822,551
2022-03-17T14:21:26,42.805,6.029,CST-1368DR,4843,5774,12723,0.820,551
2022-03-17T14:24:28,42.805,6.029,CST-1368DR,4843,5760,12691,0.830,551
2022-03-17T14:27:29,42.805,6.029,CST-1368DR,4843,5769,12713,0.823,551
2022-03-17T14:30:31,42.805,6.029,CST-1368DR,4843,5756,12683,0.832,551
2022-03-17T14:33:32,42.805,6.029,CST-1368DR,4843,5766,12706,0.825,551
2022-03-17T14:36:34,42.805,6.029,CST-1368DR,4843,5765,12703,0.826,551
2022-03-17T14:39:35,42.805,6.029,CST-1368DR,4843,5769,12712,0.823,551
2022-03-17T14:42:37,42.805,6.029,CST-1368DR,4843,5767,12707,0.825,551
2022-03-17T14:45:39,42.805,6.029,CST-1368DR,4843,5771,12717,0.821,551
2022-03-17T14:48:40,42.805,6.029,CST-1368DR,4843,5756,12683,0.832,551
2022-03-17T14:51:42,42.805,6.029,CST-1368DR,4843,5761,12695,0.828,551
2022-03-17T14:54:43,42.805,6.029,CST-1368DR,4843,5768,12710,0.824,551
2022-03-17T14:57:45,42.805,6.029,CST-1368DR,4843,5769,12711,0.823,551
2022-03-17T15:00:47,42.805,6.029,CST-1368DR,4843,5773,12722,0.820,551
2022-03-17T15:03:48,42.805,6.029,CST-1368DR,4843,5766,12706,0.825,551
2022-03-17T15:06:50,42.805,6.029,CST-1368DR,4843,5772,12719,0.821,551
2022-03-17T15:09:51,42.805,6.029,CST-1368DR,4843,5765,12702,0.826,551
2022-03-17T15:12:53,42.805,6.029,CST-1368DR,4843,5766,12706,0.825,551
2022-03-17T15:15:54,42.805,6.029,CST-1368DR,4843,5769,12711,0.823,551
2022-03-17T15:18:56,42.805,6.029,CST-1368DR,4843,5766,12706,0.825,551
2022-03-17T15:21:58,42.805,6.029,CST-1368DR,4843,5769,12712,0.823,551
2022-03-17T15:24:59,42.805,6.029,CST-1368DR,4843,5772,12718,0.821,551
2022-03-17T15:28:01,42.805,6.029,CST-1368DR,4843,5767,12707,0.825,551
2022-03-17T15:31:02,42.805,6.029,CST-1368DR,4843,5769,12712,0.823,551
2022-03-17T15:34:04,42.805,6.029,CST-1368DR,4843,5769,12712,0.823,551
2022-03-17T15:37:05,42.805,6.029,CST-1368DR,4843,5770,12715,0.822,551
2022-03-17T15:40:07,42.805,6.029,CST-1368DR,4843,5771,12717,0.821,551
2022-03-17T15:43:09,42.805,6.029,CST-1368DR,4843,5769,12711,0.823,551
2022-03-17T15:46:10,42.805,6.029,CST-1368DR,4843,5760,12692,0.829,551
2022-03-17T15:49:12,42.805,6.029,CST-1368DR,4843,5769,12712,0.823,551
2022-03-17T15:52:13,42.805,6.029,CST-1368DR,4843,5772,12718,0.821,551
2022-03-17T15:55:15,42.805,6.029,CST-1368DR,4843,5770,12713,0.823,551
2022-03-17T15:58:17,42.805,6.029,CST-1368DR,4843,5770,12713,0.823,551
2022-03-17T16:01:18,42.805,6.029,CST-1368DR,4843,5766,12706,0.825,551
2022-03-17T16:04:20,42.805,6.029,CST-1368DR,4843,5770,12713,0.823,551
2022-03-17T16:07:21,42.805,6.029,CST-1368DR,4843,5764,12701,0.826,551
2022-03-17T16:10:23,42.805,6.029,CST-1368DR,4843,5766,12705,0.825,551
2022-03-17T16:13:24,42.805,6.029,CST-1368DR,4843,5764,12701,0.826,551
2022-03-17T16:16:26,42.805,6.029,CST-1368DR,4843,5767,12707,0.825,551
2022-03-17T16:19:28,42.805,6.029,CST-1368DR,4843,5766,12706,0.825,551
2022-03-17T16:22:29,42.805,6.029,CST-1368DR,4843,5763,12700,0.827,551
2022-03-17T16:25:31,42.805,6.029,CST-1368DR,4843,5765,12704,0.826,551
2022-03-17T16:28:32,42.805,6.029,CST-1368DR,4843,5769,12711,0.823,551
2022-03-17T16:31:34,42.805,6.029,CST-1368DR,4843,5769,12712,0.823,551
2022-03-17T16:34:36,42.805,6.029,CST-1368DR,4843,5768,12709,0.824,551
2022-03-17T16:37:37,42.805,6.029,CST-1368DR,4843,5766,12705,0.825,551
2022-03-17T16:40:39,42.805,6.029,CST-1368DR,4843,5767,12708,0.824,551
2022-03-17T16:43:40,42.805,6.029,CST-1368DR,4843,5766,12706,0.825,551
2022-03-17T16:46:42,42.805,6.029,CST-1368DR,4843,5749,12669,0.837,551
2022-03-17T16:49:43,42.805,6.029,CST-1368DR,4843,5765,12703,0.826,551
2022-03-17T16:52:45,42.805,6.029,CST-1368DR,4843,5764,12701,0.826,551